Time,TemperatureF,DewpointF,PressureIn,WindDirection,WindDirectionDegrees,WindSpeedMPH,WindSpeedGustMPH,Humidity,HourlyPrecipIn,Conditions,Clouds,dailyrainin,SoftwareType,DateUTC
2013-04-24 00:01:00,40.7,22.6,-100.00,North,-999,-999.0,-999.0,48,-99.99,,,-99.99,WSDL version 420,2013-04-24 06:01:00,
2013-04-24 00:06:00,40.6,22.5,-100.00,North,-999,-999.0,-999.0,48,-99.99,,,-99.99,WSDL version 420,2013-04-24 06:06:00,
2013-04-24 00:11:00,40.6,22.5,-100.00,North,-999,-999.0,-999.0,48,-99.99,,,-99.99,WSDL version 420,2013-04-24 06:11:00,
2013-04-24 00:16:00,40.5,22.3,-100.00,North,-999,-999.0,-999.0,48,-99.99,,,-99.99,WSDL version 420,2013-04-24 06:16:00,
2013-04-24 00:21:00,40.4,22.4,-100.00,North,-999,-999.0,-999.0,49,-99.99,,,-99.99,WSDL version 420,2013-04-24 06:21:00,
2013-04-24 00:26:00,40.3,22.6,-100.00,North,-999,-999.0,-999.0,49,-99.99,,,-99.99,WSDL version 420,2013-04-24 06:26:00,
2013-04-24 00:31:00,40.3,22.6,-100.00,North,-999,-999.0,-999.0,49,-99.99,,,-99.99,WSDL version 420,2013-04-24 06:31:00,
2013-04-24 00:36:00,40.3,22.6,-100.00,North,-999,-999.0,-999.0,49,-99.99,,,-99.99,WSDL version 420,2013-04-24 06:36:00,
2013-04-24 00:41:00,40.3,22.6,-100.00,North,-999,-999.0,-999.0,49,-99.99,,,-99.99,WSDL version 420,2013-04-24 06:41:00,
2013-04-24 00:46:00,40.2,22.6,-100.00,North,-999,-999.0,-999.0,49,-99.99,,,-99.99,WSDL version 420,2013-04-24 06:46:00,
2013-04-24 00:51:00,40.0,22.4,-100.00,North,-999,-999.0,-999.0,49,-99.99,,,-99.99,WSDL version 420,2013-04-24 06:51:00,
2013-04-24 00:56:00,39.8,22.2,-100.00,North,-999,-999.0,-999.0,49,-99.99,,,-99.99,WSDL version 420,2013-04-24 06:56:00,
2013-04-24 01:01:00,39.7,22.1,-100.00,North,-999,-999.0,-999.0,49,-99.99,,,-99.99,WSDL version 420,2013-04-24 07:01:00,
2013-04-24 01:06:00,39.7,22.1,-100.00,North,-999,-999.0,-999.0,49,-99.99,,,-99.99,WSDL version 420,2013-04-24 07:06:00,
2013-04-24 01:11:00,39.4,21.9,-100.00,North,-999,-999.0,-999.0,49,-99.99,,,-99.99,WSDL version 420,2013-04-24 07:11:00,
2013-04-24 01:16:00,39.4,21.9,-100.00,North,-999,-999.0,-999.0,50,-99.99,,,-99.99,WSDL version 420,2013-04-24 07:16:00,
2013-04-24 01:21:00,39.4,22.3,-100.00,North,-999,-999.0,-999.0,50,-99.99,,,-99.99,WSDL version 420,2013-04-24 07:21:00,
2013-04-24 01:26:00,39.3,22.3,-100.00,North,-999,-999.0,-999.0,50,-99.99,,,-99.99,WSDL version 420,2013-04-24 07:26:00,
2013-04-24 01:31:00,39.2,22.1,-100.00,North,-999,-999.0,-999.0,50,-99.99,,,-99.99,WSDL version 420,2013-04-24 07:31:00,
2013-04-24 01:36:00,39.2,22.1,-100.00,North,-999,-999.0,-999.0,50,-99.99,,,-99.99,WSDL version 420,2013-04-24 07:36:00,
2013-04-24 01:41:00,39.2,22.1,-100.00,North,-999,-999.0,-999.0,50,-99.99,,,-99.99,WSDL version 420,2013-04-24 07:41:00,
2013-04-24 01:46:00,39.2,22.1,-100.00,North,-999,-999.0,-999.0,50,-99.99,,,-99.99,WSDL version 420,2013-04-24 07:46:00,
2013-04-24 01:51:00,39.0,22.0,-100.00,North,-999,-999.0,-999.0,50,-99.99,,,-99.99,WSDL version 420,2013-04-24 07:51:00,
2013-04-24 01:56:00,39.0,22.0,-100.00,North,-999,-999.0,-999.0,50,-99.99,,,-99.99,WSDL version 420,2013-04-24 07:56:00,
2013-04-24 02:01:00,38.9,22.1,-100.00,North,-999,-999.0,-999.0,51,-99.99,,,-99.99,WSDL version 420,2013-04-24 08:01:00,
2013-04-24 02:06:00,38.8,22.3,-100.00,North,-999,-999.0,-999.0,51,-99.99,,,-99.99,WSDL version 420,2013-04-24 08:06:00,
2013-04-24 02:11:00,38.8,22.3,-100.00,North,-999,-999.0,-999.0,51,-99.99,,,-99.99,WSDL version 420,2013-04-24 08:11:00,
2013-04-24 02:16:00,38.8,22.3,-100.00,North,-999,-999.0,-999.0,51,-99.99,,,-99.99,WSDL version 420,2013-04-24 08:16:00,
2013-04-24 02:21:00,38.8,22.3,-100.00,North,-999,-999.0,-999.0,51,-99.99,,,-99.99,WSDL version 420,2013-04-24 08:21:00,
2013-04-24 02:26:00,38.8,22.3,-100.00,North,-999,-999.0,-999.0,51,-99.99,,,-99.99,WSDL version 420,2013-04-24 08:26:00,
2013-04-24 02:31:00,38.8,22.3,-100.00,North,-999,-999.0,-999.0,51,-99.99,,,-99.99,WSDL version 420,2013-04-24 08:31:00,
2013-04-24 02:36:00,38.8,22.3,-100.00,North,-999,-999.0,-999.0,51,-99.99,,,-99.99,WSDL version 420,2013-04-24 08:36:00,
2013-04-24 02:41:00,38.8,22.3,-100.00,North,-999,-999.0,-999.0,51,-99.99,,,-99.99,WSDL version 420,2013-04-24 08:41:00,
2013-04-24 02:46:00,38.8,22.3,-100.00,North,-999,-999.0,-999.0,51,-99.99,,,-99.99,WSDL version 420,2013-04-24 08:46:00,
2013-04-24 02:51:00,38.8,22.4,-100.00,North,-999,-999.0,-999.0,52,-99.99,,,-99.99,WSDL version 420,2013-04-24 08:51:00,
2013-04-24 02:56:00,38.9,22.8,-100.00,North,-999,-999.0,-999.0,52,-99.99,,,-99.99,WSDL version 420,2013-04-24 08:56:00,
2013-04-24 03:01:00,39.0,22.9,-100.00,North,-999,-999.0,-999.0,52,-99.99,,,-99.99,WSDL version 420,2013-04-24 09:01:00,
2013-04-24 03:06:00,38.9,23.1,-100.00,North,-999,-999.0,-999.0,53,-99.99,,,-99.99,WSDL version 420,2013-04-24 09:06:00,
2013-04-24 03:11:00,38.6,22.7,-100.00,North,-999,-999.0,-999.0,53,-99.99,,,-99.99,WSDL version 420,2013-04-24 09:11:00,
2013-04-24 11:18:00,55.2,32.5,-100.00,North,-999,-999.0,-999.0,42,-99.99,,,-99.99,WSDL version 420,2013-04-24 17:18:00,
2013-04-24 11:23:00,55.1,32.3,-100.00,North,-999,-999.0,-999.0,42,-99.99,,,-99.99,WSDL version 420,2013-04-24 17:23:00,
2013-04-24 11:28:00,56.3,33.4,-100.00,North,-999,-999.0,-999.0,42,-99.99,,,-99.99,WSDL version 420,2013-04-24 17:28:00,
2013-04-24 11:33:00,57.2,33.8,-100.00,North,-999,-999.0,-999.0,41,-99.99,,,-99.99,WSDL version 420,2013-04-24 17:33:00,
2013-04-24 11:38:00,56.9,33.3,-100.00,North,-999,-999.0,-999.0,40,-99.99,,,-99.99,WSDL version 420,2013-04-24 17:38:00,
2013-04-24 11:43:00,57.4,33.0,-100.00,North,-999,-999.0,-999.0,39,-99.99,,,-99.99,WSDL version 420,2013-04-24 17:43:00,
2013-04-24 11:48:00,57.9,33.3,-100.00,North,-999,-999.0,-999.0,39,-99.99,,,-99.99,WSDL version 420,2013-04-24 17:48:00,
2013-04-24 11:53:00,57.8,32.9,-100.00,North,-999,-999.0,-999.0,38,-99.99,,,-99.99,WSDL version 420,2013-04-24 17:53:00,
2013-04-24 11:58:00,58.3,33.1,-100.00,North,-999,-999.0,-999.0,38,-99.99,,,-99.99,WSDL version 420,2013-04-24 17:58:00,
2013-04-24 12:03:00,57.1,31.8,-100.00,North,-999,-999.0,-999.0,38,-99.99,,,-99.99,WSDL version 420,2013-04-24 18:03:00,
2013-04-24 12:08:00,58.1,32.7,-100.00,North,-999,-999.0,-999.0,38,-99.99,,,-99.99,WSDL version 420,2013-04-24 18:08:00,
2013-04-24 12:13:00,58.7,33.2,-100.00,North,-999,-999.0,-999.0,38,-99.99,,,-99.99,WSDL version 420,2013-04-24 18:13:00,
2013-04-24 12:18:00,57.6,31.8,-100.00,North,-999,-999.0,-999.0,37,-99.99,,,-99.99,WSDL version 420,2013-04-24 18:18:00,
2013-04-24 12:23:00,56.2,31.0,-100.00,North,-999,-999.0,-999.0,38,-99.99,,,-99.99,WSDL version 420,2013-04-24 18:23:00,
2013-04-24 12:28:00,55.2,30.1,-100.00,North,-999,-999.0,-999.0,38,-99.99,,,-99.99,WSDL version 420,2013-04-24 18:28:00,
2013-04-24 12:33:00,55.2,30.0,-100.00,North,-999,-999.0,-999.0,38,-99.99,,,-99.99,WSDL version 420,2013-04-24 18:33:00,
2013-04-24 12:38:00,56.2,30.6,-100.00,North,-999,-999.0,-999.0,37,-99.99,,,-99.99,WSDL version 420,2013-04-24 18:38:00,
2013-04-24 12:43:00,57.1,31.4,-100.00,North,-999,-999.0,-999.0,37,-99.99,,,-99.99,WSDL version 420,2013-04-24 18:43:00,
2013-04-24 12:48:00,56.0,30.1,-100.00,North,-999,-999.0,-999.0,37,-99.99,,,-99.99,WSDL version 420,2013-04-24 18:48:00,
2013-04-24 12:53:00,54.9,29.5,-100.00,North,-999,-999.0,-999.0,38,-99.99,,,-99.99,WSDL version 420,2013-04-24 18:53:00,
2013-04-24 12:58:00,55.7,30.1,-100.00,North,-999,-999.0,-999.0,37,-99.99,,,-99.99,WSDL version 420,2013-04-24 18:58:00,
2013-04-24 13:03:00,56.9,30.9,-100.00,North,-999,-999.0,-999.0,37,-99.99,,,-99.99,WSDL version 420,2013-04-24 19:03:00,
2013-04-24 13:08:00,57.8,31.8,-100.00,North,-999,-999.0,-999.0,37,-99.99,,,-99.99,WSDL version 420,2013-04-24 19:08:00,
2013-04-24 13:13:00,58.8,32.2,-100.00,North,-999,-999.0,-999.0,36,-99.99,,,-99.99,WSDL version 420,2013-04-24 19:13:00,
2013-04-24 13:18:00,59.9,32.9,-100.00,North,-999,-999.0,-999.0,36,-99.99,,,-99.99,WSDL version 420,2013-04-24 19:18:00,
2013-04-24 13:23:00,60.2,33.2,-100.00,North,-999,-999.0,-999.0,36,-99.99,,,-99.99,WSDL version 420,2013-04-24 19:23:00,
2013-04-24 13:28:00,60.4,33.3,-100.00,North,-999,-999.0,-999.0,36,-99.99,,,-99.99,WSDL version 420,2013-04-24 19:28:00,
2013-04-24 13:33:00,60.2,33.2,-100.00,North,-999,-999.0,-999.0,36,-99.99,,,-99.99,WSDL version 420,2013-04-24 19:33:00,
2013-04-24 13:38:00,59.9,32.9,-100.00,North,-999,-999.0,-999.0,36,-99.99,,,-99.99,WSDL version 420,2013-04-24 19:38:00,
2013-04-24 13:43:00,58.8,31.9,-100.00,North,-999,-999.0,-999.0,36,-99.99,,,-99.99,WSDL version 420,2013-04-24 19:43:00,
2013-04-24 13:48:00,58.8,31.9,-100.00,North,-999,-999.0,-999.0,36,-99.99,,,-99.99,WSDL version 420,2013-04-24 19:48:00,
2013-04-24 13:53:00,58.8,32.0,-100.00,North,-999,-999.0,-999.0,36,-99.99,,,-99.99,WSDL version 420,2013-04-24 19:53:00,
2013-04-24 13:58:00,58.8,31.9,-100.00,North,-999,-999.0,-999.0,36,-99.99,,,-99.99,WSDL version 420,2013-04-24 19:58:00,
2013-04-24 14:03:00,58.2,31.1,-100.00,North,-999,-999.0,-999.0,36,-99.99,,,-99.99,WSDL version 420,2013-04-24 20:03:00,
2013-04-24 14:08:00,57.6,30.9,-100.00,North,-999,-999.0,-999.0,36,-99.99,,,-99.99,WSDL version 420,2013-04-24 20:08:00,
2013-04-24 14:13:00,57.6,30.9,-100.00,North,-999,-999.0,-999.0,36,-99.99,,,-99.99,WSDL version 420,2013-04-24 20:13:00,
2013-04-24 14:18:00,56.9,30.2,-100.00,North,-999,-999.0,-999.0,36,-99.99,,,-99.99,WSDL version 420,2013-04-24 20:18:00,
2013-04-24 14:23:00,56.7,30.1,-100.00,North,-999,-999.0,-999.0,36,-99.99,,,-99.99,WSDL version 420,2013-04-24 20:23:00,
2013-04-24 14:28:00,57.0,30.4,-100.00,North,-999,-999.0,-999.0,36,-99.99,,,-99.99,WSDL version 420,2013-04-24 20:28:00,
2013-04-24 14:33:00,57.3,30.5,-100.00,North,-999,-999.0,-999.0,36,-99.99,,,-99.99,WSDL version 420,2013-04-24 20:33:00,
2013-04-24 14:38:00,56.3,29.7,-100.00,North,-999,-999.0,-999.0,36,-99.99,,,-99.99,WSDL version 420,2013-04-24 20:38:00,
2013-04-24 14:43:00,56.1,29.5,-100.00,North,-999,-999.0,-999.0,36,-99.99,,,-99.99,WSDL version 420,2013-04-24 20:43:00,
2013-04-24 14:48:00,56.5,29.9,-100.00,North,-999,-999.0,-999.0,36,-99.99,,,-99.99,WSDL version 420,2013-04-24 20:48:00,
2013-04-24 14:53:00,56.8,30.2,-100.00,North,-999,-999.0,-999.0,36,-99.99,,,-99.99,WSDL version 420,2013-04-24 20:53:00,
2013-04-24 14:58:00,56.9,30.2,-100.00,North,-999,-999.0,-999.0,36,-99.99,,,-99.99,WSDL version 420,2013-04-24 20:58:00,
2013-04-24 15:03:00,56.8,30.2,-100.00,North,-999,-999.0,-999.0,36,-99.99,,,-99.99,WSDL version 420,2013-04-24 21:03:00,
2013-04-24 15:08:00,56.8,30.1,-100.00,North,-999,-999.0,-999.0,36,-99.99,,,-99.99,WSDL version 420,2013-04-24 21:08:00,
2013-04-24 15:13:00,56.8,30.3,-100.00,North,-999,-999.0,-999.0,36,-99.99,,,-99.99,WSDL version 420,2013-04-24 21:13:00,
2013-04-24 15:18:00,56.9,30.2,-100.00,North,-999,-999.0,-999.0,36,-99.99,,,-99.99,WSDL version 420,2013-04-24 21:18:00,
2013-04-24 15:23:00,56.8,30.2,-100.00,North,-999,-999.0,-999.0,36,-99.99,,,-99.99,WSDL version 420,2013-04-24 21:23:00,
2013-04-24 15:28:00,56.6,29.9,-100.00,North,-999,-999.0,-999.0,36,-99.99,,,-99.99,WSDL version 420,2013-04-24 21:28:00,
2013-04-24 15:33:00,56.7,30.1,-100.00,North,-999,-999.0,-999.0,36,-99.99,,,-99.99,WSDL version 420,2013-04-24 21:33:00,
2013-04-24 15:38:00,57.0,30.3,-100.00,North,-999,-999.0,-999.0,36,-99.99,,,-99.99,WSDL version 420,2013-04-24 21:38:00,
2013-04-24 15:43:00,57.1,30.1,-100.00,North,-999,-999.0,-999.0,36,-99.99,,,-99.99,WSDL version 420,2013-04-24 21:43:00,
2013-04-24 15:48:00,56.8,29.7,-100.00,North,-999,-999.0,-999.0,35,-99.99,,,-99.99,WSDL version 420,2013-04-24 21:48:00,
2013-04-24 15:54:00,56.5,29.9,-100.00,North,-999,-999.0,-999.0,36,-99.99,,,-99.99,WSDL version 420,2013-04-24 21:54:00,
2013-04-24 15:59:00,56.6,30.0,-100.00,North,-999,-999.0,-999.0,36,-99.99,,,-99.99,WSDL version 420,2013-04-24 21:59:00,
2013-04-24 16:04:00,57.0,29.8,-100.00,North,-999,-999.0,-999.0,35,-99.99,,,-99.99,WSDL version 420,2013-04-24 22:04:00,
2013-04-24 16:09:00,57.1,29.9,-100.00,North,-999,-999.0,-999.0,35,-99.99,,,-99.99,WSDL version 420,2013-04-24 22:09:00,
2013-04-24 16:14:00,57.0,29.6,-100.00,North,-999,-999.0,-999.0,35,-99.99,,,-99.99,WSDL version 420,2013-04-24 22:14:00,
2013-04-24 16:19:00,56.8,29.5,-100.00,North,-999,-999.0,-999.0,35,-99.99,,,-99.99,WSDL version 420,2013-04-24 22:19:00,
2013-04-24 16:24:00,57.4,30.0,-100.00,North,-999,-999.0,-999.0,35,-99.99,,,-99.99,WSDL version 420,2013-04-24 22:24:00,
2013-04-24 16:29:00,57.3,29.9,-100.00,North,-999,-999.0,-999.0,35,-99.99,,,-99.99,WSDL version 420,2013-04-24 22:29:00,
2013-04-24 16:34:00,57.2,29.8,-100.00,North,-999,-999.0,-999.0,35,-99.99,,,-99.99,WSDL version 420,2013-04-24 22:34:00,
2013-04-24 16:39:00,57.3,29.9,-100.00,North,-999,-999.0,-999.0,35,-99.99,,,-99.99,WSDL version 420,2013-04-24 22:39:00,
2013-04-24 16:44:00,57.3,29.9,-100.00,North,-999,-999.0,-999.0,35,-99.99,,,-99.99,WSDL version 420,2013-04-24 22:44:00,
2013-04-24 16:49:00,57.3,29.9,-100.00,North,-999,-999.0,-999.0,35,-99.99,,,-99.99,WSDL version 420,2013-04-24 22:49:00,
2013-04-24 16:54:00,57.0,29.6,-100.00,North,-999,-999.0,-999.0,35,-99.99,,,-99.99,WSDL version 420,2013-04-24 22:54:00,
2013-04-24 16:59:00,56.8,29.5,-100.00,North,-999,-999.0,-999.0,35,-99.99,,,-99.99,WSDL version 420,2013-04-24 22:59:00,
2013-04-24 17:04:00,57.0,29.6,-100.00,North,-999,-999.0,-999.0,35,-99.99,,,-99.99,WSDL version 420,2013-04-24 23:04:00,
2013-04-24 17:09:00,57.2,29.8,-100.00,North,-999,-999.0,-999.0,35,-99.99,,,-99.99,WSDL version 420,2013-04-24 23:09:00,
2013-04-24 17:14:00,57.7,30.2,-100.00,North,-999,-999.0,-999.0,35,-99.99,,,-99.99,WSDL version 420,2013-04-24 23:14:00,
2013-04-24 17:19:00,57.7,30.3,-100.00,North,-999,-999.0,-999.0,35,-99.99,,,-99.99,WSDL version 420,2013-04-24 23:19:00,
2013-04-24 17:24:00,57.6,30.1,-100.00,North,-999,-999.0,-999.0,35,-99.99,,,-99.99,WSDL version 420,2013-04-24 23:24:00,
2013-04-24 17:29:00,57.4,30.0,-100.00,North,-999,-999.0,-999.0,35,-99.99,,,-99.99,WSDL version 420,2013-04-24 23:29:00,
2013-04-24 17:34:00,57.4,30.0,-100.00,North,-999,-999.0,-999.0,35,-99.99,,,-99.99,WSDL version 420,2013-04-24 23:34:00,
2013-04-24 17:39:00,57.3,29.9,-100.00,North,-999,-999.0,-999.0,35,-99.99,,,-99.99,WSDL version 420,2013-04-24 23:39:00,
2013-04-24 17:44:00,57.3,29.9,-100.00,North,-999,-999.0,-999.0,35,-99.99,,,-99.99,WSDL version 420,2013-04-24 23:44:00,
2013-04-24 17:49:00,57.4,30.0,-100.00,North,-999,-999.0,-999.0,35,-99.99,,,-99.99,WSDL version 420,2013-04-24 23:49:00,
2013-04-24 17:54:00,57.6,30.2,-100.00,North,-999,-999.0,-999.0,35,-99.99,,,-99.99,WSDL version 420,2013-04-24 23:54:00,
2013-04-24 17:59:00,57.6,30.1,-100.00,North,-999,-999.0,-999.0,35,-99.99,,,-99.99,WSDL version 420,2013-04-24 23:59:00,
2013-04-24 18:04:00,57.6,30.1,-100.00,North,-999,-999.0,-999.0,35,-99.99,,,-99.99,WSDL version 420,2013-04-25 00:04:00,
2013-04-24 18:09:00,57.6,30.1,-100.00,North,-999,-999.0,-999.0,35,-99.99,,,-99.99,WSDL version 420,2013-04-25 00:09:00,
2013-04-24 18:14:00,57.6,30.1,-100.00,North,-999,-999.0,-999.0,35,-99.99,,,-99.99,WSDL version 420,2013-04-25 00:14:00,
2013-04-24 18:19:00,57.6,30.1,-100.00,North,-999,-999.0,-999.0,35,-99.99,,,-99.99,WSDL version 420,2013-04-25 00:19:00,
2013-04-24 18:24:00,57.5,30.1,-100.00,North,-999,-999.0,-999.0,35,-99.99,,,-99.99,WSDL version 420,2013-04-25 00:24:00,
2013-04-24 18:29:00,57.2,29.9,-100.00,North,-999,-999.0,-999.0,35,-99.99,,,-99.99,WSDL version 420,2013-04-25 00:29:00,
2013-04-24 18:34:00,57.1,29.8,-100.00,North,-999,-999.0,-999.0,35,-99.99,,,-99.99,WSDL version 420,2013-04-25 00:34:00,
2013-04-24 18:39:00,57.1,29.7,-100.00,North,-999,-999.0,-999.0,35,-99.99,,,-99.99,WSDL version 420,2013-04-25 00:39:00,
2013-04-24 18:44:00,57.2,29.3,-100.00,North,-999,-999.0,-999.0,34,-99.99,,,-99.99,WSDL version 420,2013-04-25 00:44:00,
2013-04-24 18:49:00,57.2,28.9,-100.00,North,-999,-999.0,-999.0,33,-99.99,,,-99.99,WSDL version 420,2013-04-25 00:49:00,
2013-04-24 18:54:00,57.1,28.9,-100.00,North,-999,-999.0,-999.0,34,-99.99,,,-99.99,WSDL version 420,2013-04-25 00:54:00,
2013-04-24 18:59:00,57.0,29.0,-100.00,North,-999,-999.0,-999.0,35,-99.99,,,-99.99,WSDL version 420,2013-04-25 00:59:00,
2013-04-24 19:04:00,56.8,29.1,-100.00,North,-999,-999.0,-999.0,34,-99.99,,,-99.99,WSDL version 420,2013-04-25 01:04:00,
2013-04-24 19:09:00,56.8,28.8,-100.00,North,-999,-999.0,-999.0,34,-99.99,,,-99.99,WSDL version 420,2013-04-25 01:09:00,
2013-04-24 19:14:00,57.0,28.9,-100.00,North,-999,-999.0,-999.0,34,-99.99,,,-99.99,WSDL version 420,2013-04-25 01:14:00,
2013-04-24 19:19:00,57.0,28.9,-100.00,North,-999,-999.0,-999.0,34,-99.99,,,-99.99,WSDL version 420,2013-04-25 01:19:00,
2013-04-24 19:24:00,56.9,28.8,-100.00,North,-999,-999.0,-999.0,34,-99.99,,,-99.99,WSDL version 420,2013-04-25 01:24:00,
2013-04-24 19:29:00,56.7,29.2,-100.00,North,-999,-999.0,-999.0,35,-99.99,,,-99.99,WSDL version 420,2013-04-25 01:29:00,
2013-04-24 19:34:00,56.3,28.4,-100.00,North,-999,-999.0,-999.0,34,-99.99,,,-99.99,WSDL version 420,2013-04-25 01:34:00,
2013-04-24 19:39:00,56.1,28.1,-100.00,North,-999,-999.0,-999.0,34,-99.99,,,-99.99,WSDL version 420,2013-04-25 01:39:00,
2013-04-24 19:44:00,55.7,27.8,-100.00,North,-999,-999.0,-999.0,34,-99.99,,,-99.99,WSDL version 420,2013-04-25 01:44:00,
2013-04-24 19:49:00,55.4,27.5,-100.00,North,-999,-999.0,-999.0,34,-99.99,,,-99.99,WSDL version 420,2013-04-25 01:49:00,
2013-04-24 19:54:00,55.1,27.6,-100.00,North,-999,-999.0,-999.0,35,-99.99,,,-99.99,WSDL version 420,2013-04-25 01:54:00,
2013-04-24 19:59:00,54.7,27.6,-100.00,North,-999,-999.0,-999.0,35,-99.99,,,-99.99,WSDL version 420,2013-04-25 01:59:00,
2013-04-24 20:04:00,54.3,27.2,-100.00,North,-999,-999.0,-999.0,35,-99.99,,,-99.99,WSDL version 420,2013-04-25 02:04:00,
2013-04-24 20:09:00,54.1,27.0,-100.00,North,-999,-999.0,-999.0,35,-99.99,,,-99.99,WSDL version 420,2013-04-25 02:09:00,
2013-04-24 20:14:00,53.8,26.8,-100.00,North,-999,-999.0,-999.0,35,-99.99,,,-99.99,WSDL version 420,2013-04-25 02:14:00,
2013-04-24 20:19:00,53.4,27.0,-100.00,North,-999,-999.0,-999.0,36,-99.99,,,-99.99,WSDL version 420,2013-04-25 02:19:00,
2013-04-24 20:24:00,53.0,26.8,-100.00,North,-999,-999.0,-999.0,36,-99.99,,,-99.99,WSDL version 420,2013-04-25 02:24:00,
2013-04-24 20:29:00,52.9,26.7,-100.00,North,-999,-999.0,-999.0,36,-99.99,,,-99.99,WSDL version 420,2013-04-25 02:29:00,
2013-04-24 20:34:00,52.9,26.6,-100.00,North,-999,-999.0,-999.0,35,-99.99,,,-99.99,WSDL version 420,2013-04-25 02:34:00,
2013-04-24 20:39:00,52.8,26.1,-100.00,North,-999,-999.0,-999.0,35,-99.99,,,-99.99,WSDL version 420,2013-04-25 02:39:00,
2013-04-24 20:44:00,52.8,25.9,-100.00,North,-999,-999.0,-999.0,35,-99.99,,,-99.99,WSDL version 420,2013-04-25 02:44:00,
2013-04-24 20:49:00,52.5,25.7,-100.00,North,-999,-999.0,-999.0,36,-99.99,,,-99.99,WSDL version 420,2013-04-25 02:49:00,
2013-04-24 20:54:00,52.1,26.0,-100.00,North,-999,-999.0,-999.0,36,-99.99,,,-99.99,WSDL version 420,2013-04-25 02:54:00,
2013-04-24 20:59:00,51.6,25.6,-100.00,North,-999,-999.0,-999.0,36,-99.99,,,-99.99,WSDL version 420,2013-04-25 02:59:00,
2013-04-24 21:04:00,51.2,25.2,-100.00,North,-999,-999.0,-999.0,36,-99.99,,,-99.99,WSDL version 420,2013-04-25 03:04:00,
2013-04-24 21:09:00,50.9,24.9,-100.00,North,-999,-999.0,-999.0,36,-99.99,,,-99.99,WSDL version 420,2013-04-25 03:09:00,
2013-04-24 21:15:00,50.4,24.5,-100.00,North,-999,-999.0,-999.0,36,-99.99,,,-99.99,WSDL version 420,2013-04-25 03:15:00,
2013-04-24 21:20:00,50.2,24.3,-100.00,North,-999,-999.0,-999.0,36,-99.99,,,-99.99,WSDL version 420,2013-04-25 03:20:00,
2013-04-24 21:25:00,49.9,24.4,-100.00,North,-999,-999.0,-999.0,37,-99.99,,,-99.99,WSDL version 420,2013-04-25 03:25:00,
2013-04-24 21:30:00,49.7,24.5,-100.00,North,-999,-999.0,-999.0,37,-99.99,,,-99.99,WSDL version 420,2013-04-25 03:30:00,
2013-04-24 21:35:00,49.6,24.4,-100.00,North,-999,-999.0,-999.0,37,-99.99,,,-99.99,WSDL version 420,2013-04-25 03:35:00,
2013-04-24 21:40:00,49.4,24.2,-100.00,North,-999,-999.0,-999.0,37,-99.99,,,-99.99,WSDL version 420,2013-04-25 03:40:00,
2013-04-24 21:45:00,49.2,24.0,-100.00,North,-999,-999.0,-999.0,37,-99.99,,,-99.99,WSDL version 420,2013-04-25 03:45:00,
2013-04-24 21:50:00,49.2,24.0,-100.00,North,-999,-999.0,-999.0,37,-99.99,,,-99.99,WSDL version 420,2013-04-25 03:50:00,
2013-04-24 21:55:00,49.1,24.1,-100.00,North,-999,-999.0,-999.0,38,-99.99,,,-99.99,WSDL version 420,2013-04-25 03:55:00,
2013-04-24 22:00:00,48.9,24.4,-100.00,North,-999,-999.0,-999.0,38,-99.99,,,-99.99,WSDL version 420,2013-04-25 04:00:00,
2013-04-24 22:01:00,48.9,24.4,-100.00,North,-999,-999.0,-999.0,38,-99.99,,,-99.99,WSDL version 420,2013-04-25 04:01:00,
2013-04-24 22:02:00,48.9,24.4,-100.00,North,-999,-999.0,-999.0,38,-99.99,,,-99.99,WSDL version 420,2013-04-25 04:02:00,
2013-04-24 22:03:00,48.9,24.4,-100.00,North,-999,-999.0,-999.0,38,-99.99,,,-99.99,WSDL version 420,2013-04-25 04:03:00,
2013-04-24 22:06:00,48.9,24.4,-100.00,North,-999,-999.0,-999.0,38,-99.99,,,-99.99,WSDL version 420,2013-04-25 04:06:00,
2013-04-24 22:08:00,48.9,24.5,-100.00,North,-999,-999.0,-999.0,39,-99.99,,,-99.99,WSDL version 420,2013-04-25 04:08:00,
2013-04-24 22:13:00,48.9,25.0,-100.00,North,-999,-999.0,-999.0,39,-99.99,,,-99.99,WSDL version 420,2013-04-25 04:13:00,
2013-04-24 22:18:00,48.7,24.9,-100.00,North,-999,-999.0,-999.0,39,-99.99,,,-99.99,WSDL version 420,2013-04-25 04:18:00,
2013-04-24 22:23:00,48.6,24.8,-100.00,North,-999,-999.0,-999.0,39,-99.99,,,-99.99,WSDL version 420,2013-04-25 04:23:00,
2013-04-24 22:28:00,48.4,24.6,-100.00,North,-999,-999.0,-999.0,39,-99.99,,,-99.99,WSDL version 420,2013-04-25 04:28:00,
2013-04-24 22:33:00,48.3,24.5,-100.00,North,-999,-999.0,-999.0,39,-99.99,,,-99.99,WSDL version 420,2013-04-25 04:33:00,
2013-04-24 22:38:00,48.2,24.4,-100.00,North,-999,-999.0,-999.0,39,-99.99,,,-99.99,WSDL version 420,2013-04-25 04:38:00,
2013-04-24 22:43:00,48.0,24.3,-100.00,North,-999,-999.0,-999.0,39,-99.99,,,-99.99,WSDL version 420,2013-04-25 04:43:00,
2013-04-24 22:48:00,47.9,24.1,-100.00,North,-999,-999.0,-999.0,39,-99.99,,,-99.99,WSDL version 420,2013-04-25 04:48:00,
2013-04-24 22:53:00,47.7,24.0,-100.00,North,-999,-999.0,-999.0,39,-99.99,,,-99.99,WSDL version 420,2013-04-25 04:53:00,
2013-04-24 22:58:00,47.4,23.7,-100.00,North,-999,-999.0,-999.0,39,-99.99,,,-99.99,WSDL version 420,2013-04-25 04:58:00,
2013-04-24 23:03:00,47.3,23.6,-100.00,North,-999,-999.0,-999.0,39,-99.99,,,-99.99,WSDL version 420,2013-04-25 05:03:00,
2013-04-24 23:08:00,47.1,23.5,-100.00,North,-999,-999.0,-999.0,39,-99.99,,,-99.99,WSDL version 420,2013-04-25 05:08:00,
2013-04-24 23:13:00,46.9,23.3,-100.00,North,-999,-999.0,-999.0,39,-99.99,,,-99.99,WSDL version 420,2013-04-25 05:13:00,
2013-04-24 23:18:00,46.8,23.2,-100.00,North,-999,-999.0,-999.0,39,-99.99,,,-99.99,WSDL version 420,2013-04-25 05:18:00,
2013-04-24 23:23:00,46.8,23.6,-100.00,North,-999,-999.0,-999.0,40,-99.99,,,-99.99,WSDL version 420,2013-04-25 05:23:00,
2013-04-24 23:28:00,46.6,23.6,-100.00,North,-999,-999.0,-999.0,40,-99.99,,,-99.99,WSDL version 420,2013-04-25 05:28:00,
2013-04-24 23:33:00,46.6,23.6,-100.00,North,-999,-999.0,-999.0,40,-99.99,,,-99.99,WSDL version 420,2013-04-25 05:33:00,
2013-04-24 23:38:00,46.6,23.6,-100.00,North,-999,-999.0,-999.0,40,-99.99,,,-99.99,WSDL version 420,2013-04-25 05:38:00,
2013-04-24 23:43:00,46.6,23.6,-100.00,North,-999,-999.0,-999.0,40,-99.99,,,-99.99,WSDL version 420,2013-04-25 05:43:00,
2013-04-24 23:48:00,46.6,23.6,-100.00,North,-999,-999.0,-999.0,40,-99.99,,,-99.99,WSDL version 420,2013-04-25 05:48:00,
2013-04-24 23:53:00,46.7,23.7,-100.00,North,-999,-999.0,-999.0,40,-99.99,,,-99.99,WSDL version 420,2013-04-25 05:53:00,
2013-04-24 23:58:00,46.9,23.8,-100.00,North,-999,-999.0,-999.0,40,-99.99,,,-99.99,WSDL version 420,2013-04-25 05:58:00,